Regional Weather Roundup
Issued by NWS

Home | Current Version | Previous Version | Graphics & Text | Print | Product List | Glossary On
Versions: 1 2 3 4 5 6 7 8 9 10 11 12 13 14 15 16 17 18 19 20 21 22 23 24 25 26 27 28 29 30 31 32 33 34 35 36 37 38 39 40 41 42 43 44 45 46 47 48 49 50
000
ASUS44 KMEG 230110
RWRTN
TENNESSEE HOURLY STATE WEATHER ROUNDUP
NATIONAL WEATHER SERVICE MEMPHIS TN
800 PM CDT TUE APR 22 2014

TNZ002-004-019-021-049-052-054-088>092-230200-
WEST TENNESSEE

CITY           SKY/WX    TMP DP  RH WIND       PRES   REMARKS
MEMPHIS INTL   PTCLDY    68  42  38 N7        29.93R
NWS MEMPHIS      N/A     67 N/A N/A MISG        N/A
JACKSON        CLEAR     64  44  48 NW5       29.92R
DYERSBURG      CLEAR     66  37  34 N10       29.94R
UNION CITY     CLEAR     61  43  51 N3        29.93R
PARIS          CLEAR     63  38  39 N6        29.93R
LEXINGTON      CLEAR     66  43  42 NW6       29.90R
SAVANNAH       CLEAR     69  52  54 NW6       29.90R
$$

TNZ008-025-027-028-033-062-065-066-230200-
NORTH MIDDLE TENNESSEE

CITY           SKY/WX    TMP DP  RH WIND       PRES   REMARKS
NASHVILLE      CLEAR     68  43  40 N9        29.89R
DICKSON        CLEAR     64  43  45 N7        29.90R
PORTLAND         N/A     63  43  48 N7        29.89R
CLARKSVILLE    CLEAR     60  43  53 N6        29.92R
SMYRNA         CLEAR     67  46  46 N10       29.89R
MURFREESBORO   CLEAR     70  47  43 N8        29.87R
COOKEVILLE     CLEAR     66  52  59 N6        29.87R
LIVINGSTON     CLEAR     65  45  48 N9        29.87R
GALLATIN       CLEAR     68  44  41 N10       29.89R
CROSSVILLE     CLEAR     65  50  58 NW9       29.88R
$$

TNZ061-075-076-078-094-096-097-230200-
SOUTH MIDDLE TENNESSEE

CITY           SKY/WX    TMP DP  RH WIND       PRES   REMARKS
LEWISBURG      PTCLDY    68  54  60 N6        29.87R
FAYETTEVILLE   MOCLDY    68  57  67 N5        29.86R
TULLAHOMA      PTCLDY    63  59  88 N5        29.88R
WINCHESTER     CLOUDY    66  59  77 W3        29.87R
MCMINNVILLE    CLEAR     66  54  63 NW8       29.87R
COLUMBIA       CLEAR     70  57  64 N7        29.87R
SHELBYVILLE    CLEAR     66  57  72 N5        29.88R
$$

TNZ017-018-042-046-047-230200-
NORTHEAST TENNESSEE

CITY           SKY/WX    TMP DP  RH WIND       PRES   REMARKS
TRI CITIES     PTCLDY    62  56  80 SW9       29.81R
ELIZABETHTON   MOCLDY    61  55  82 CALM      29.81R
$$

TNZ012-013-036-069-073-074-230200-
CENTRAL EAST TENNESSEE

CITY           SKY/WX    TMP DP  RH WIND       PRES   REMARKS
KNOXVILLE      LGT RAIN  63  60  90 SW10      29.82R
OAK RIDGE      MOCLDY    68  61  78 S3        29.83R
$$

TNZ083-085-099-230200-
SOUTHEAST TENNESSEE

CITY           SKY/WX    TMP DP  RH WIND       PRES   REMARKS
CHATTANOOGA    PTCLDY    66  61  84 CALM      29.84R
$$

SKY/WX REPORTED AS FAIR MEANS FEW OR NO CLOUDS BELOW
12 THOUSAND FEET.




USA.gov is the U.S. government's official web portal to all federal, state and local government web resources and services.